Location: Howard City Library
(37.4684°N, 96.2639°W)
Time: 20:41:56
(UTC+00:00)

STARLINK-1016 - Pass Details

Date: 18 February 2020
Orbit: 549 x 550 km, 53.0° (Epoch: 03 April)

Event Time Altitude Azimuth Distance (km) Brightness Sun altitude
Rises 01:22:23 0° 233° (SW) 2,708 8.1 -15.7°
Reaches altitude 10° 01:24:37 10° 235° (SW) 1,818 7.1 -16.2°
Maximum altitude 01:28:44 69° 319° (NW) 591 3.8 -17.0°
Enters shadow 01:31:06 24° 38° (NE) 1,153 4.9 -17.5°
